Orbital Elements at Epoch 2459200.5 (2020-Dec-17.0) TDB
Reference: JPL 19 (heliocentric ecliptic J2000)
Element | Value | Uncertainty (1-sigma) | Units |
e | .05571080325107401 | 4.7773e-08 | |
a | 3.392321973291861 | 3.162e-08 | au |
q | 3.203332991273503 | 1.5814e-07 | au |
i | 5.928406483440984 | 5.3903e-06 | deg |
node | 35.33285357485012 | 5.0767e-05 | deg |
peri | 252.352760842823 | 7.5116e-05 | deg |
M | 64.88135099347913 | 5.4836e-05 | deg |
tp | 2458789.197443722908 (2019-Nov-01.69744372) | 0.0003478 | TDB |
period | 2282.149153685696 6.25 | 3.1908e-05 8.736e-08 | d yr |
n | .1577460436442535 | 2.2055e-09 | deg/d |
Q | 3.581310955310219 | 3.3382e-08 | au |
|
| | Orbit Determination Parameters
Additional Information
|